Englewood, Florida, United States (34223)
Lat: 26.96N, Lon: 82.35W
Wx Zone: FLZ060
Local Info
Past Weather Observations for Wednesday, December 17, 2014

NOTE: This archive is for the closest National Weather Service station to Englewood. Information may differ from the station used for current weather conditions.

Click here for Long-term Archive

Time Weather Temperature Dewpoint Humidity Pressure Winds Precip Visibility
23:53
Partly Cloudy
59°F / 15°C 52°F / 11°C 77% 30.21 in
(1023 mb)
N 4.6 mph
(N 7 kph)
- 10SM
23:48
Partly Cloudy
59°F / 15°C 52°F / 11°C 77% 30.21 in
(1023 mb)
N 5.8 mph
(N 9 kph)
- 10SM
22:53
Overcast
61°F / 16°C 57°F / 14°C 88% 30.21 in
(1023 mb)
N 6.9 mph
(N 11 kph)
- 10SM
22:23
Mostly Cloudy
61°F / 16°C 59°F / 15°C 94% 30.18 in
(1022 mb)
N 5.8 mph
(N 9 kph)
- 10SM
22:05
Partly Cloudy
Fog And Mist
61°F / 16°C 59°F / 15°C 94% 30.18 in
(1022 mb)
NNW 5.8 mph
(NNW 9 kph)
- 4SM
21:55
Partly Cloudy
Fog And Mist
57°F / 14°C 57°F / 14°C 100% 30.18 in
(1022 mb)
NNW 5.8 mph
(NNW 9 kph)
- 1 1/4SM
21:53
Clear
Fog And Mist
57°F / 14°C 57°F / 14°C 100% 30.18 in
(1022 mb)
NNW 5.8 mph
(NNW 9 kph)
- 2SM
21:43
Clear
Fog And Mist
59°F / 15°C 59°F / 15°C 100% 30.18 in
(1022 mb)
Calm - 1 3/4SM
20:53
Clear
61°F / 16°C 59°F / 15°C 94% 30.15 in
(1021 mb)
Calm - 10SM
19:53
Clear
61°F / 16°C 61°F / 16°C 100% 30.15 in
(1021 mb)
S 3.5 mph
(S 6 kph)
- 10SM
18:53
Mostly Cloudy
64°F / 18°C 61°F / 16°C 88% 30.15 in
(1021 mb)
SW 3.5 mph
(SW 6 kph)
- 10SM
17:53
Clear
66°F / 19°C 61°F / 16°C 83% 30.15 in
(1021 mb)
SW 5.8 mph
(SW 9 kph)
- 10SM
16:53
Clear
72°F / 22°C 59°F / 15°C 65% 30.12 in
(1020 mb)
SSW 8.1 mph
(SSW 13 kph)
- 10SM
15:53
Clear
73°F / 23°C 57°F / 14°C 57% 30.12 in
(1020 mb)
SSW 10.4 mph
(SSW 17 kph)
- 10SM
14:53
Clear
73°F / 23°C 57°F / 14°C 57% 30.12 in
(1020 mb)
SW 10.4 mph
(SW 17 kph)
- 10SM
13:53
Clear
75°F / 24°C 54°F / 12°C 47% 30.15 in
(1021 mb)
SSW 9.2 mph
(SSW 15 kph)
- 10SM
12:53
Clear
75°F / 24°C 59°F / 15°C 57% 30.18 in
(1022 mb)
SW 8.1 mph
(SW 13 kph)
- 10SM
11:53
Partly Cloudy
73°F / 23°C 57°F / 14°C 57% 30.21 in
(1023 mb)
SSW 10.4 mph
(SSW 17 kph)
- 10SM
10:53
Mostly Cloudy
73°F / 23°C 59°F / 15°C 61% 30.21 in
(1023 mb)
SSW 8.1 mph
(SSW 13 kph)
- 10SM
09:53
Partly Cloudy
70°F / 21°C 63°F / 17°C 78% 30.24 in
(1024 mb)
SW 6.9 mph
(SW 11 kph)
- 10SM
08:53
Partly Cloudy
64°F / 18°C 63°F / 17°C 94% 30.21 in
(1023 mb)
S 3.5 mph
(S 6 kph)
- 10SM
07:53
Clear
Fog And Mist
55°F / 13°C 55°F / 13°C 100% 30.18 in
(1022 mb)
Calm - 4SM
07:03
Partly Cloudy
Fog And Mist
54°F / 12°C 52°F / 11°C 94% 30.18 in
(1022 mb)
S 3.5 mph
(S 6 kph)
- 3SM
07:01
Partly Cloudy
Fog And Mist
54°F / 12°C 52°F / 11°C 94% 30.18 in
(1022 mb)
S 3.5 mph
(S 6 kph)
- 1 1/2SM
06:53
Obscured
Fog
52°F / 11°C 52°F / 11°C 100% 30.18 in
(1022 mb)
S 3.5 mph
(S 6 kph)
- 1/4SM
06:46
Clear
Fog And Mist
52°F / 11°C 52°F / 11°C 100% 30.18 in
(1022 mb)
S 4.6 mph
(S 7 kph)
- 3/4SM
06:40
Clear
Fog And Mist
52°F / 11°C 50°F / 10°C 94% 30.18 in
(1022 mb)
S 3.5 mph
(S 6 kph)
- 2 1/2SM
06:19
Clear
Fog And Mist
54°F / 12°C 52°F / 11°C 94% 30.18 in
(1022 mb)
Calm - 3SM
06:06
Fog And Mist
52°F / 11°C 52°F / 11°C 100% 30.18 in
(1022 mb)
Calm - 1 1/2SM
05:53
Fair
52°F / 11°C 52°F / 11°C 100% 30.18 in
(1022 mb)
S 3.5 mph
(S 6 kph)
- 10SM
04:55
Fog And Mist
50°F / 10°C 48°F / 9°C 94% 30.18 in
(1022 mb)
SSE 3.5 mph
(SSE 6 kph)
- 4SM
04:53
Mostly Cloudy
Fog And Mist
50°F / 10°C 50°F / 10°C 100% 30.18 in
(1022 mb)
SSE 3.5 mph
(SSE 6 kph)
- 2 1/2SM
04:36
Obscured
Fog
52°F / 11°C 50°F / 10°C 94% 30.18 in
(1022 mb)
Calm - 1/4SM
04:27
Partly Cloudy
Fog And Mist
52°F / 11°C 50°F / 10°C 94% 30.18 in
(1022 mb)
Calm - 1 1/2SM
03:53
Obscured
Fog
50°F / 10°C 50°F / 10°C 100% 30.18 in
(1022 mb)
Calm - 1/2SM
03:44
Partly Cloudy
Fog And Mist
50°F / 10°C 50°F / 10°C 100% 30.18 in
(1022 mb)
Calm - 1 1/4SM
03:35
Obscured
Fog
50°F / 10°C 50°F / 10°C 100% 30.18 in
(1022 mb)
Calm - 1/2SM
03:27
Obscured
Fog And Mist
52°F / 11°C 50°F / 10°C 94% 30.18 in
(1022 mb)
Calm - 1SM
03:24
Partly Cloudy
Fog And Mist
52°F / 11°C 50°F / 10°C 94% 30.18 in
(1022 mb)
Calm - 2 1/2SM
03:11
Clear
52°F / 11°C 50°F / 10°C 94% 30.18 in
(1022 mb)
Calm - 8SM
03:02
Clear
Fog And Mist
52°F / 11°C 52°F / 11°C 100% 30.18 in
(1022 mb)
Calm - 2SM
02:53
Clear
Fog And Mist
52°F / 11°C 52°F / 11°C 100% 30.18 in
(1022 mb)
Calm - 3/4SM
02:37
Clear
Fog And Mist
52°F / 11°C 52°F / 11°C 100% 30.18 in
(1022 mb)
Calm - 1 1/2SM
02:09
Clear
Fog And Mist
54°F / 12°C 52°F / 11°C 94% 30.18 in
(1022 mb)
Calm - 4SM
02:01
Clear
Fog And Mist
54°F / 12°C 52°F / 11°C 94% 30.18 in
(1022 mb)
Calm - 2SM
01:53
Clear
Fog And Mist
54°F / 12°C 52°F / 11°C 94% 30.18 in
(1022 mb)
Calm - 3/4SM
01:44
Clear
Fog And Mist
52°F / 11°C 52°F / 11°C 100% 30.21 in
(1023 mb)
SW 3.5 mph
(SW 6 kph)
- 1 1/4SM
01:31
Clear
Fog And Mist
52°F / 11°C 52°F / 11°C 100% 30.21 in
(1023 mb)
Calm - 2SM
00:53
Clear
52°F / 11°C 52°F / 11°C 100% 30.21 in
(1023 mb)
SW 3.5 mph
(SW 6 kph)
- 7SM
Time Weather Temperature Dewpoint Humidity Pressure Winds Precip Visibility


Weather for websites

WeatherForYou.com, LLC is not responsible for any damages or problems caused by this service. Current weather conditions are obtained from the closest station including government and personal stations which may have varying degrees of accuracy. Weather forecasts are derived from the NOAA NDFD. Like all things, this site belongs to Jesus Christ... He just trusts me to maintain it. If you have any questions or comments email webmaster@weatherforyou.com

Copyright © 2014, WeatherForYou.com LLC. All rights reserved.